Regional Weather Roundup
Issued by NWS

Home | Current Version | Previous Version | Graphics & Text | Print | Product List | Glossary On
Versions: 1 2 3 4 5 6 7 8 9 10 11 12 13 14 15 16 17 18 19 20 21 22 23 24 25 26 27 28 29 30 31 32 33 34 35 36 37 38 39 40 41 42 43 44 45 46 47 48 49 50
000
ASUS43 KOAX 011610
RWRNE

WEATHER ROUNDUP FOR NEBRASKA
NATIONAL WEATHER SERVICE OMAHA NE
1100 AM CDT TUE SEP 01 2015

NOTES: SATELLITE DATA IS BEING USED TO AUGMENT CLOUD COVER ABOVE
       12000 FEET.
       "FAIR" INDICATES FEW OR NO CLOUDS BELOW 12,000 FEET WITH NO
       SIGNIFICANT WEATHER AND/OR OBSTRUCTIONS TO VISIBILITY.

  * THESE STATIONS DO NOT REPORT WEATHER SUCH AS RAIN...SNOW OR FOG.

NEZ001>004-019>022-054>056-011700-
NEBRASKA PANHANDLE

CITY           SKY/WX    TMP DP  RH WIND       PRES   REMARKS
SCOTTSBLUFF    SUNNY     74  54  49 CALM      30.00S
ALLIANCE       SUNNY     81  47  30 W10       29.98S
CHADRON        SUNNY     82  48  30 W7        29.92S
KIMBALL        SUNNY     77  49  36 W12       30.05S
SIDNEY         SUNNY     84  48  28 W12       30.03S
$$

NEZ057>060-069>072-079>082-011700-
SOUTHWEST NEBRASKA

CITY           SKY/WX    TMP DP  RH WIND       PRES   REMARKS
NORTH PLATTE   MOSUNNY   79  62  56 CALM      29.95S
IMPERIAL       SUNNY     77  56  48 W7        30.00R
LEXINGTON      SUNNY     78  64  62 NW3       29.94S
MCCOOK         SUNNY     80  63  55 VRB5      29.96S
OGALLALA       PTSUNNY   74  59  59 W5        29.99S
$$

NEZ005>010-023>029-035>040-094-011700-
NORTH CENTRAL NEBRASKA

CITY           SKY/WX    TMP DP  RH WIND       PRES   REMARKS
VALENTINE      PTSUNNY   71  64  78 CALM      29.92F
AINSWORTH      CLOUDY    75  66  74 S9        29.95R
BROKEN BOW     MOSUNNY   82  62  50 N6        29.93F
O`NEILL        CLOUDY    76  71  83 NE5       29.92R
ORD            PTSUNNY   77  62  59 E3        29.91S
THEDFORD       MOSUNNY   78  67  66 CALM      29.96S
$$

NEZ041-046>049-061>064-073>077-083>087-011700-
SOUTH CENTRAL NEBRASKA

CITY           SKY/WX    TMP DP  RH WIND       PRES   REMARKS
GRAND ISLAND   PTSUNNY   81  63  54 S15G22    29.95R
AURORA         PTSUNNY   79  67  66 SW9       29.95S
HASTINGS       PTSUNNY   80  64  58 SW12      29.96R
HEBRON         MOSUNNY   82  62  50 SW14      29.95S
HOLDREGE       SUNNY     78  58  49 SW12      29.95S
KEARNEY *      MOSUNNY   79  61  53 S14       29.94S
YORK           MOSUNNY   79  68  69 SW13      29.96S
$$

NEZ011>018-030>034-042>045-011700-
NORTHEAST NEBRASKA

CITY           SKY/WX    TMP DP  RH WIND       PRES   REMARKS
NORFOLK        MOSUNNY   79  65  62 SW13      29.92R
ALBION         PTSUNNY   74  62  66 S3        29.93R
BLAIR          MOSUNNY   78  67  69 S14G20    29.95S
COLUMBUS *     PTSUNNY   79  64  61 SW7       29.94S
FREMONT        CLOUDY    79  67  67 S7        29.95R
TEKAMAH        PTSUNNY   78  69  73 S10       29.93R
WAYNE          PTSUNNY   77  66  69 SW13      29.92R
$$

NEZ050>053-065>068-078-088>093-011700-
SOUTHEAST NEBRASKA

CITY           SKY/WX    TMP DP  RH WIND       PRES   REMARKS
LINCOLN        PTSUNNY   80  67  64 S12       29.96R
OMAHA EPPLEY   PTSUNNY   81  68  64 S10       29.95S
BEATRICE       PTSUNNY   80  67  65 S6        29.97S
FALLS CITY     MOSUNNY   84  69  60 S15       29.98S
NEBRASKA CITY  MOSUNNY   80  65  59 SW10      29.97S
PLATTSMOUTH    MOSUNNY   79  67  67 S9        29.96F
$$

NEZ044-045-051>053-067-011700-
OMAHA AREA

CITY           SKY/WX    TMP DP  RH WIND       PRES   REMARKS
OMAHA EPPLEY   PTSUNNY   81  68  64 S10       29.95S
BLAIR          MOSUNNY   78  67  69 S14G20    29.95S
FREMONT        CLOUDY    79  67  67 S7        29.95R
MILLARD        PTSUNNY   81  69  68 S7        29.95S
OFFUTT AFB     MOSUNNY   81  69  68 S7        29.95S
PLATTSMOUTH    MOSUNNY   79  67  67 S9        29.96F
WAHOO          FAIR      79  69  70 S9        29.95R
$$




USA.gov is the U.S. government's official web portal to all federal, state and local government web resources and services.